Location: Baller�as
(41.9020°N, 0.1554°W)
Time: 11:34:38
(UTC+00:00)

Cosmos 1954 Rocket - Pass Details

Date: 10 August 2020
Orbit: 753 x 781 km, 74.1° (Epoch: 22 September)

Event Time Altitude Azimuth Distance (km) Brightness Sun altitude
Exits shadow 20:28:58 - 183° (S) 3,125 6.8 -14.1°
Reaches altitude 10° 20:31:04 10° 178° (S) 2,324 6.1 -14.5°
Maximum altitude 20:36:10 51° 104° (ESE) 979 4.2 -15.2°
Drops below altitude 10° 20:41:19 10° 30° (NNE) 2,342 6.6 -16.0°
Sets 20:43:45 0° 25° (NNE) 3,273 7.4 -16.3°
